Temperature
10 10 11 11 11 11 11 11 11 11 11 11 11 11 11 11 11 11 11 11 11 11 11 11 11 11 11 11 11 11 11 10 10 10 9 9 10 9 9 9 9 9 9
10 10 10 11 11 11 11 11 11 11 11 11 11 11 11 10 10 10 10 10 10 10 10 10 10 10 10 10 10 10 10 10 10 9 8 9 9 9 9 9 9 9 9
10 10 10 11 11 11 11 11 10 10 10 11 11 10 10 10 10 10 10 10 10 10 10 10 10 10 10 10 10 10 9 9 9 9 8 8 9 8 8 9 9 9 9
10 10 10 10 11 11 10 10 10 10 10 10 10 10 10 10 10 10 10 10 9 9 9 9 9 9 9 9 9 9 9 9 8 8 8 8 8 7 8 8 8 8 8
10 10 10 11 11 10 10 10 10 10 10 10 10 10 10 9 9 9 9 9 9 9 9 9 9 9 9 9 9 9 9 8 8 8 8 7 7 7 7 7 7 7 8
10 10 10 10 10 10 10 10 10 10 10 9 9 9 9 9 9 9 9 9 9 9 9 9 9 8 8 8 8 8 8 8 8 7 7 7 6 6 6 6 6 6 7
9 10 10 10 10 10 10 10 9 9 9 9 9 9 9 9 9 9 8 8 8 8 8 8 8 8 8 8 8 8 7 7 7 7 7 6 6 6 6 5 5 5 6
9 9 10 10 10 10 10 10 9 9 9 9 9 9 9 8 8 8 8 8 8 8 8 8 8 8 7 7 7 7 7 7 7 6 6 6 6 6 6 5 5 5 5
9 9 9 9 9 9 9 9 9 9 9 9 9 9 8 8 8 8 8 8 8 8 7 7 7 7 7 7 7 7 6 6 6 6 6 6 6 6 5 5 5 4 4
8 9 9 9 9 9 9 9 9 9 9 9 9 8 8 8 8 8 8 7 7 7 7 7 7 7 7 6 6 6 6 6 6 6 6 6 6 5 5 5 5 4 4
8 9 9 9 9 9 9 9 9 9 9 8 8 8 8 8 8 7 7 7 7 7 7 7 7 6 6 6 6 6 6 6 6 5 5 5 5 5 5 5 4 4 4
8 9 9 9 8 8 8 8 8 8 8 8 8 8 8 7 7 7 7 7 7 7 6 6 6 6 6 6 6 5 5 5 5 5 5 5 5 4 4 4 4 4 4
8 8 8 8 8 8 8 8 8 8 8 8 8 7 7 7 7 7 7 7 6 6 6 6 6 6 6 5 5 5 5 5 5 5 4 4 4 4 4 4 4 3 3
7 7 8 8 8 8 8 8 8 7 7 7 7 7 7 7 7 6 6 6 6 6 6 6 6 5 5 5 5 5 4 4 4 4 4 4 4 4 4 3 3 3 3
7 7 7 7 7 7 7 7 7 7 7 7 7 7 6 6 6 6 6 6 6 6 5 5 5 5 5 5 4 4 4 4 4 4 4 4 3 3 3 3 3 2 2
6 7 7 7 7 6 6 7 7 6 6 6 6 6 6 6 6 6 5 5 5 5 5 5 5 4 4 4 4 4 3 3 3 3 3 3 3 3 3 3 2 2 2
6 6 6 6 6 6 6 6 6 6 6 6 6 6 5 5 5 5 5 5 5 4 4 4 4 4 4 4 3 3 3 3 3 3 3 3 3 3 2 2 2 2 2
6 6 6 6 6 6 5 5 5 5 5 5 5 5 5 5 5 4 4 4 4 4 4 4 4 3 3 3 3 3 2 2 2 2 2 2 2 2 2 1 1 1 1
6 5 5 5 5 5 5 5 5 5 4 4 4 4 4 4 4 4 4 4 4 3 3 3 3 3 3 3 3 2 2 2 2 2 2 2 2 2 1 1 1 1 1
5 5 5 5 5 5 4 4 4 4 4 4 4 4 4 4 4 4 3 3 3 3 3 3 3 2 2 2 2 2 1 1 1 1 1 1 1 1 1 0 0 1 1
5 5 4 4 4 4 4 4 4 4 3 3 3 3 3 3 3 3 3 3 3 2 2 2 2 2 2 2 2 1 1 1 1 1 1 1 1 1 0 0 0 0 -0
4 4 4 4 4 3 3 3 3 3 3 3 3 3 3 3 3 2 2 2 2 2 2 2 2 2 2 1 1 1 1 1 1 1 1 1 1 0 0 0 0 -0 -1
3 3 3 3 3 3 3 3 3 3 3 3 2 2 2 2 2 2 2 2 2 1 1 1 1 1 1 1 1 1 1 0 0 0 0 0 0 0 -0 -0 -0 -1 -1
3 3 3 3 3 2 2 2 2 2 2 2 2 2 2 2 2 1 1 1 1 1 1 1 1 1 1 1 1 0 0 -0 -0 -0 -0 -0 -0 -0 -0 -0 -1 -1 -1
2 2 2 2 2 2 2 2 2 2 1 1 1 1 1 1 1 1 1 1 1 1 1 0 0 -0 0 0 0 -0 -0 -0 -1 -1 -1 -1 -1 -1 -1 -1 -1 -1 -2
2 2 2 2 2 2 2 1 1 1 1 1 1 1 1 1 0 0 1 1 1 0 0 0 -0 -0 -0 -0 -0 -0 -1 -1 -1 -1 -1 -1 -1 -1 -1 -1 -1 -2 -2
Wind_Speed
3 3 4 4 4 4 4 3 2 2 3 2 1 1 1 1 2 2 3 3 4 4 3 3 3 3 2 3 3 3 3 2 3 3 3 3 3 2 2 2 2 2 3
4 4 4 4 4 4 4 3 3 3 2 2 1 1 1 1 1 1 2 3 3 3 3 3 2 3 3 3 3 3 2 2 2 2 3 3 3 2 2 2 2 3 2
5 5 5 4 4 3 3 3 3 2 2 2 2 1 1 1 1 1 0 1 2 2 2 2 2 2 3 3 3 3 3 3 2 2 2 3 3 3 3 3 3 3 3
5 5 5 4 4 3 3 3 3 3 3 2 2 1 1 0 0 0 0 0 1 1 1 2 2 2 2 2 3 3 3 3 3 2 2 3 3 3 3 3 3 4 4
4 4 4 4 4 3 4 4 4 3 3 2 2 1 1 0 0 0 0 0 0 0 1 1 1 2 2 2 3 3 3 3 3 3 3 3 4 5 5 6 5 5 4
3 3 3 3 3 3 3 4 4 3 3 3 2 2 1 1 0 1 1 1 1 1 1 2 2 2 2 3 3 3 3 3 3 3 3 4 3 4 5 6 7 7 5
3 3 3 3 3 3 3 4 4 4 3 3 3 2 2 2 2 2 2 2 2 2 2 2 2 2 2 3 3 3 3 3 4 4 3 4 4 4 5 6 7 7 6
2 2 2 3 3 3 3 4 4 4 4 4 3 3 3 2 2 2 2 3 2 3 3 3 3 3 3 3 3 3 3 3 4 4 4 4 4 4 5 5 6 7 6
2 2 2 2 3 3 3 3 3 3 4 4 4 4 4 3 3 3 3 3 3 3 3 4 3 3 4 4 4 3 4 4 4 4 5 4 4 4 5 5 5 5 7
2 1 1 1 2 2 2 2 3 3 3 4 4 4 4 4 4 4 5 5 4 4 4 4 4 4 4 4 4 4 4 5 5 4 5 5 5 4 4 5 5 6 6
1 1 1 1 1 1 1 2 2 3 3 3 4 5 5 5 5 5 5 5 5 5 5 5 5 6 5 5 5 5 5 6 5 5 6 6 6 5 5 4 5 5 6
1 1 1 1 1 1 2 2 2 3 3 4 4 5 5 5 6 6 6 6 6 6 6 6 7 7 6 6 6 7 6 7 7 7 6 7 5 6 5 5 6 6 6
2 1 1 1 1 2 2 2 3 4 4 4 5 5 6 6 6 7 7 7 7 7 7 7 7 7 7 7 7 7 8 8 8 7 7 7 7 7 6 6 6 6 6
2 2 1 2 2 3 3 3 4 4 4 4 5 6 6 6 7 7 7 7 7 7 7 8 8 8 8 8 8 8 8 9 8 8 8 8 8 8 8 7 7 7 7
4 3 3 2 3 3 4 4 4 4 4 5 6 6 6 6 7 7 7 7 7 8 8 8 8 8 8 8 8 8 9 9 9 9 9 9 9 9 9 7 7 7 7
4 4 4 4 4 4 4 4 5 4 5 6 6 6 6 7 7 7 7 7 8 8 8 8 9 9 8 9 11 10 9 9 10 10 10 9 9 10 11 12 11 10 9
5 5 5 5 5 5 5 5 5 5 5 6 7 6 7 7 7 7 7 8 8 8 9 9 9 10 10 10 12 12 10 10 10 10 9 8 8 9 9 10 11 11 13
5 5 5 5 5 5 5 5 5 5 6 6 7 7 7 8 8 8 8 8 8 8 9 9 10 10 10 10 12 12 11 11 11 11 10 10 10 8 8 8 9 9 10
5 5 5 5 5 5 5 5 6 6 6 7 7 7 7 8 8 8 9 8 8 8 9 9 9 10 10 10 12 12 9 10 11 10 10 10 10 10 10 9 9 9 8
4 4 4 5 5 5 5 6 6 6 7 7 7 7 7 8 8 9 9 8 8 9 8 9 9 10 11 10 12 12 8 9 9 9 9 11 12 11 11 10 9 10 9
5 4 5 5 5 5 5 6 7 8 7 7 7 7 7 8 8 8 8 8 8 8 9 10 9 10 11 11 12 13 9 9 9 8 8 8 11 13 13 12 10 11 9
5 5 5 6 5 5 5 7 8 8 7 7 8 8 8 7 7 8 7 7 8 8 9 9 9 8 9 10 11 13 13 11 9 9 8 8 10 12 12 11 11 11 8
5 5 5 6 6 5 5 8 8 7 7 7 8 8 8 7 7 7 7 7 7 7 8 8 8 8 7 8 11 13 14 13 10 9 10 11 11 11 10 11 11 9 7
6 5 5 6 7 6 6 8 8 7 7 8 8 8 8 8 7 6 6 6 7 7 8 8 8 8 8 7 6 7 8 10 9 8 9 11 10 9 9 8 7 7 7
6 6 6 7 8 7 7 7 7 6 7 8 8 8 7 8 7 7 7 8 9 9 9 8 8 9 9 9 9 8 7 7 7 7 6 6 6 6 6 6 6 6 6
6 6 7 8 8 8 8 7 6 6 7 8 8 7 7 7 7 8 8 10 12 13 15 15 14 12 13 13 13 13 13 12 11 8 7 7 7 7 7 7 6 6 6
Wind_Direction
166 157 155 152 150 139 129 123 113 117 119 113 110 125 116 113 99 74 56 49 42 35 32 20 7 358 346 336 333 330 315 320 318 291 286 269 259 261 285 306 312 322 323
169 164 163 161 163 150 143 139 124 107 107 108 96 79 110 135 104 78 59 45 42 31 20 17 7 360 345 337 340 338 320 319 331 303 288 275 245 229 280 281 304 311 318
192 180 175 172 167 162 159 146 138 126 117 109 115 121 131 141 135 120 71 32 35 34 16 6 356 351 345 340 334 326 311 300 300 307 287 283 280 302 250 268 283 297 303
204 194 188 181 180 175 162 157 155 147 134 137 149 146 145 104 6 327 319 13 28 26 17 352 343 337 329 325 327 315 300 290 281 289 291 288 295 281 282 263 270 287 293
198 198 198 195 183 169 161 162 156 151 152 159 155 154 145 115 64 331 347 331 354 9 356 330 328 321 309 308 308 311 301 292 287 285 283 277 278 272 276 283 289 288 284
190 189 185 176 167 161 161 164 164 167 172 177 174 174 183 188 212 277 305 309 308 302 312 302 305 305 299 298 300 297 292 288 287 285 280 275 272 275 272 277 289 293 291
179 172 170 167 164 167 170 174 178 184 188 191 197 197 200 220 247 266 276 286 289 288 292 281 282 286 285 287 289 287 282 278 277 276 275 275 274 278 277 278 284 288 290
160 163 173 177 176 174 175 178 188 199 200 203 211 216 210 218 244 254 260 262 265 267 276 271 270 275 277 278 278 278 278 277 272 271 271 272 274 272 267 271 282 287 283
154 158 167 182 184 182 185 189 198 210 213 216 218 223 223 227 237 245 251 255 258 263 264 265 270 271 269 270 273 271 274 276 275 273 270 269 269 269 268 265 265 275 286
149 160 172 184 188 194 197 200 215 230 233 230 229 232 234 234 239 242 243 246 251 251 255 260 263 265 265 264 263 266 266 268 272 274 272 271 271 268 265 262 260 258 268
180 181 181 185 186 191 205 219 233 245 248 245 242 240 240 239 240 242 248 251 254 252 253 254 254 255 257 257 256 258 261 262 267 267 268 269 272 271 268 266 264 261 261
237 224 182 176 187 212 232 246 253 256 260 259 254 251 249 245 245 248 249 249 251 250 249 251 250 251 253 253 253 256 256 257 261 263 264 267 268 267 268 266 265 265 263
224 214 200 213 231 245 258 263 266 268 270 268 262 259 256 255 254 255 253 249 248 249 247 247 248 249 249 250 252 255 256 256 260 262 261 264 264 264 264 265 266 266 269
227 222 235 251 264 267 272 275 275 275 274 270 267 267 266 263 262 260 257 253 251 250 250 249 250 250 249 249 250 253 256 258 258 258 258 259 258 261 264 264 265 267 268
236 237 250 266 280 287 288 287 285 282 277 273 271 272 274 271 266 263 260 257 254 253 254 254 253 251 250 248 248 252 255 258 259 257 256 256 256 260 260 262 264 263 263
245 251 263 275 283 292 296 293 290 287 281 274 274 278 277 272 267 265 264 261 259 259 257 255 255 254 252 245 246 253 258 257 258 260 259 257 252 252 254 257 259 258 259
252 258 268 277 282 287 289 289 292 293 284 279 281 282 278 273 270 268 265 262 262 261 259 259 257 258 257 249 250 250 256 258 258 259 260 258 254 253 257 256 254 254 253
257 265 273 280 285 285 285 288 289 287 284 284 285 285 281 277 276 270 267 266 264 262 262 261 259 260 259 251 252 253 254 258 258 257 257 257 258 252 253 260 261 261 257
264 271 276 280 282 282 284 284 282 283 283 285 287 286 282 278 275 272 270 270 267 265 263 262 260 260 261 250 250 251 256 257 258 257 255 254 256 251 247 252 258 263 263
274 280 285 284 282 286 286 279 280 282 284 289 291 290 283 277 275 275 274 271 267 267 268 264 262 261 263 257 250 248 252 258 261 261 257 249 250 253 246 248 253 257 260
280 282 282 281 285 292 286 280 282 283 289 293 291 288 283 278 277 276 273 270 268 268 267 266 264 261 261 261 254 249 247 253 259 260 260 255 247 251 251 252 253 255 260
278 278 278 282 288 287 281 281 281 287 291 290 288 288 287 283 276 273 272 269 267 267 268 268 268 264 260 258 257 252 248 251 255 258 261 261 254 255 257 256 253 254 253
275 274 274 283 287 280 274 278 286 292 290 286 286 288 288 282 274 269 270 270 266 266 269 269 271 271 267 261 255 256 253 250 254 259 262 265 261 259 258 254 250 247 246
275 275 274 279 285 285 278 276 286 287 282 282 285 287 287 285 279 272 266 264 265 266 267 269 271 273 271 267 263 258 258 253 255 262 261 258 256 252 252 254 248 244 242
277 271 267 273 281 288 286 284 283 280 278 280 281 283 282 282 282 275 268 264 263 261 266 270 270 271 272 266 259 262 261 258 256 264 265 258 256 254 251 250 248 244 240
276 272 270 273 280 286 287 288 284 276 276 281 283 283 284 284 281 282 281 257 254 263 260 261 263 266 264 272 267 262 261 260 255 256 252 250 248 248 249 247 247 244 242
Height
1514 1514 1515 1516 1517 1517 1517 1519 1520 1520 1519 1520 1521 1521 1521 1522 1522 1522 1522 1522 1522 1521 1521 1521 1520 1520 1519 1519 1518 1517 1516 1515 1514 1513 1512 1511 1510 1509 1508 1507 1507 1505 1504
1513 1513 1514 1515 1516 1517 1518 1519 1519 1518 1519 1520 1521 1521 1520 1521 1520 1520 1520 1520 1520 1520 1520 1519 1518 1518 1517 1517 1516 1515 1514 1513 1512 1512 1511 1511 1510 1507 1506 1505 1504 1503 1502
1512 1513 1514 1515 1515 1516 1517 1517 1518 1518 1519 1519 1520 1520 1520 1519 1519 1519 1519 1518 1518 1518 1518 1518 1517 1516 1515 1514 1513 1513 1512 1511 1510 1510 1510 1510 1508 1506 1504 1503 1502 1501 1500
1511 1512 1513 1514 1515 1515 1516 1516 1517 1518 1518 1519 1519 1519 1518 1517 1517 1518 1517 1517 1517 1517 1516 1516 1515 1514 1513 1512 1511 1510 1509 1509 1508 1507 1507 1507 1506 1505 1503 1501 1500 1498 1497
1509 1510 1511 1512 1513 1514 1515 1516 1516 1516 1517 1518 1518 1518 1517 1516 1516 1516 1515 1516 1515 1515 1514 1514 1513 1512 1511 1510 1509 1508 1507 1506 1505 1504 1504 1503 1503 1502 1501 1499 1497 1495 1494
1508 1508 1510 1510 1511 1512 1513 1514 1515 1515 1516 1516 1516 1516 1515 1515 1514 1514 1513 1513 1513 1512 1512 1511 1510 1510 1509 1508 1507 1505 1504 1503 1502 1501 1500 1500 1500 1499 1498 1496 1494 1492 1490
1506 1507 1508 1508 1509 1510 1511 1512 1513 1514 1514 1514 1514 1514 1513 1513 1513 1512 1512 1511 1510 1510 1509 1509 1508 1507 1506 1505 1504 1503 1502 1501 1500 1499 1498 1497 1496 1496 1495 1493 1491 1489 1487
1505 1505 1506 1507 1507 1508 1509 1510 1511 1512 1512 1512 1512 1512 1512 1511 1510 1510 1509 1509 1508 1507 1507 1506 1505 1504 1503 1502 1501 1500 1499 1498 1497 1495 1494 1493 1493 1492 1491 1490 1488 1486 1484
1504 1504 1505 1505 1506 1506 1507 1508 1509 1509 1510 1510 1510 1510 1509 1508 1508 1507 1507 1506 1505 1505 1504 1503 1502 1501 1500 1499 1498 1497 1496 1494 1493 1492 1491 1490 1489 1488 1487 1486 1485 1484 1481
1503 1504 1504 1504 1505 1505 1506 1506 1506 1506 1507 1507 1507 1507 1506 1506 1505 1504 1504 1503 1502 1501 1501 1500 1499 1498 1497 1496 1495 1494 1492 1491 1490 1488 1487 1486 1485 1484 1483 1482 1481 1479 1478
1502 1503 1503 1504 1504 1504 1504 1504 1504 1504 1504 1504 1504 1504 1503 1503 1502 1501 1501 1500 1499 1498 1497 1496 1495 1494 1493 1492 1491 1490 1489 1488 1486 1485 1484 1482 1481 1480 1478 1477 1476 1475 1473
1501 1501 1502 1502 1502 1502 1502 1502 1502 1501 1501 1501 1500 1500 1500 1499 1498 1498 1497 1496 1495 1494 1493 1492 1491 1490 1489 1488 1487 1486 1485 1483 1482 1481 1479 1478 1477 1475 1474 1473 1471 1470 1469
1500 1500 1500 1500 1500 1500 1500 1499 1499 1498 1498 1497 1497 1496 1496 1495 1494 1494 1493 1491 1490 1489 1488 1487 1486 1485 1484 1483 1482 1481 1480 1479 1477 1476 1475 1473 1472 1471 1470 1468 1467 1465 1464
1498 1498 1498 1498 1497 1497 1497 1496 1496 1495 1494 1494 1493 1492 1491 1490 1490 1489 1488 1486 1485 1484 1483 1482 1481 1480 1479 1478 1477 1476 1475 1473 1472 1471 1470 1469 1467 1466 1465 1463 1462 1460 1459
1495 1496 1496 1495 1495 1494 1494 1493 1492 1492 1491 1489 1488 1487 1486 1485 1484 1483 1483 1481 1480 1479 1478 1477 1475 1474 1473 1472 1471 1471 1469 1468 1467 1466 1465 1463 1462 1461 1459 1458 1457 1455 1454
1493 1493 1493 1493 1492 1492 1491 1490 1489 1488 1487 1485 1484 1483 1482 1480 1479 1478 1477 1476 1475 1473 1472 1471 1470 1468 1467 1467 1466 1465 1464 1462 1461 1460 1458 1457 1456 1455 1454 1453 1451 1450 1449
1490 1490 1490 1489 1489 1488 1487 1486 1485 1484 1482 1481 1480 1478 1477 1475 1474 1472 1471 1470 1469 1468 1466 1465 1464 1462 1461 1461 1460 1459 1458 1456 1455 1454 1452 1451 1450 1449 1448 1446 1445 1444 1442
1487 1487 1486 1486 1485 1484 1483 1482 1481 1479 1478 1477 1475 1473 1471 1470 1468 1467 1465 1464 1463 1461 1460 1459 1458 1456 1455 1455 1454 1453 1451 1450 1448 1447 1446 1445 1444 1443 1442 1440 1439 1437 1436
1484 1483 1483 1482 1481 1480 1479 1477 1476 1475 1473 1472 1470 1468 1466 1464 1463 1461 1460 1459 1457 1456 1454 1453 1452 1450 1449 1448 1447 1446 1445 1443 1442 1441 1440 1439 1438 1437 1436 1434 1432 1431 1430
1480 1479 1478 1478 1477 1476 1474 1473 1471 1470 1468 1467 1465 1463 1461 1459 1458 1456 1454 1453 1452 1450 1448 1447 1445 1444 1443 1442 1441 1440 1439 1437 1436 1435 1434 1432 1431 1431 1429 1428 1426 1424 1423
1476 1476 1474 1473 1472 1471 1470 1468 1467 1465 1464 1462 1460 1458 1456 1454 1453 1451 1449 1447 1446 1444 1442 1441 1439 1438 1436 1435 1435 1434 1432 1431 1430 1428 1427 1426 1425 1424 1423 1422 1420 1419 1418
1473 1472 1470 1469 1468 1467 1465 1463 1462 1460 1459 1457 1455 1453 1451 1449 1447 1445 1443 1442 1440 1438 1436 1434 1433 1431 1430 1429 1428 1427 1426 1425 1423 1422 1421 1420 1419 1418 1416 1415 1414 1413 1412
1468 1467 1466 1465 1464 1462 1461 1459 1458 1456 1453 1452 1450 1448 1446 1444 1442 1440 1438 1436 1434 1432 1430 1428 1426 1424 1423 1422 1421 1420 1419 1418 1417 1415 1414 1413 1412 1411 1409 1408 1407 1406 1405
1464 1463 1461 1460 1459 1458 1456 1455 1453 1451 1449 1447 1445 1443 1441 1439 1437 1435 1433 1430 1428 1426 1424 1422 1420 1418 1417 1415 1414 1413 1412 1411 1410 1409 1408 1407 1406 1404 1403 1402 1401 1400 1399
1459 1458 1456 1455 1454 1453 1451 1450 1448 1446 1444 1442 1440 1438 1435 1433 1431 1429 1427 1424 1422 1421 1419 1416 1414 1412 1410 1409 1409 1407 1406 1405 1404 1402 1401 1400 1399 1398 1397 1396 1395 1394 1393
1454 1453 1452 1450 1449 1448 1446 1444 1443 1441 1439 1436 1435 1432 1430 1427 1425 1422 1420 1417 1416 1414 1412 1410 1408 1405 1404 1403 1402 1401 1399 1398 1398 1396 1394 1393 1393 1392 1390 1389 1388 1388 1387